Date,TemperatureHighF,TemperatureAvgF,TemperatureLowF,DewpointHighF,DewpointAvgF,DewpointLowF,HumidityHigh,HumidityAvg,HumidityLow,PressureMaxIn,PressureMinIn,WindSpeedMaxMPH,WindSpeedAvgMPH,GustSpeedMaxMPH,PrecipitationSumIn
2013-1-1,56,42,31,42,35,30,98,79,48,30.28,30.17,11,1,13,0.00
2013-1-2,64,46,26,41,35,25,98,71,35,30.25,30.12,4,0,6,0.00
2013-1-3,62,40,28,42,34,27,98,81,42,30.26,30.16,7,0,7,0.01
2013-1-4,63,43,30,41,35,29,98,77,33,30.28,30.17,7,0,9,0.00
2013-1-5,53,46,34,48,44,33,98,94,82,30.28,30.07,9,0,12,0.59
2013-1-6,48,44,35,46,42,35,99,94,83,30.18,30.03,7,0,11,0.06
2013-1-7,58,44,34,50,41,33,99,91,71,30.27,30.15,7,0,9,0.01
2013-1-8,65,47,35,50,41,35,99,83,47,30.22,30.10,11,1,12,0.01
2013-1-9,57,45,36,48,41,35,99,88,68,30.14,29.99,13,1,17,0.00
2013-1-10,49,42,35,39,36,32,97,78,55,30.21,30.05,16,3,21,0.02
2013-1-11,52,39,28,39,34,27,97,82,52,30.29,30.15,9,1,12,0.00
2013-1-12,50,41,30,37,32,26,94,74,40,30.26,30.14,9,1,11,0.00
2013-1-13,50,36,25,30,25,17,94,67,27,30.28,30.18,14,1,14,0.01
2013-1-14,51,39,29,27,19,12,85,48,25,30.43,30.24,19,2,19,0.00
2013-1-15,54,37,25,33,28,23,95,72,35,30.51,30.43,8,1,10,0.00
2013-1-16,64,41,26,38,31,24,97,73,33,30.47,30.26,7,0,8,0.00
2013-1-17,75,46,28,43,33,26,97,70,19,30.27,30.11,6,0,8,0.00
2013-1-18,71,46,29,44,32,23,98,69,17,30.19,30.10,7,0,9,0.00
2013-1-19,72,46,29,44,34,28,97,69,22,30.22,30.12,6,0,8,0.01
2013-1-20,74,47,29,41,34,27,97,68,23,30.21,30.08,4,0,5,0.00
2013-1-21,74,46,28,41,32,26,95,67,20,30.16,30.05,6,0,9,0.00
2013-1-22,69,47,30,41,33,26,95,66,21,30.11,30.00,9,0,11,0.00
2013-1-23,55,49,44,51,44,38,97,84,64,30.06,29.96,4,0,4,0.05
2013-1-24,54,51,48,54,51,48,99,98,94,30.15,30.02,4,0,5,0.36
2013-1-25,71,56,46,60,53,46,100,92,64,30.15,29.97,9,0,10,0.22
2013-1-26,57,48,42,52,43,38,100,83,52,30.08,29.96,13,2,15,0.01
2013-1-27,54,47,42,41,38,32,87,74,44,30.14,30.07,11,2,13,0.00
2013-1-28,56,46,33,43,39,32,97,80,50,30.30,30.14,11,1,13,0.00
2013-1-29,60,46,35,44,40,34,98,80,52,30.35,30.23,11,1,12,0.00
2013-1-30,65,51,37,46,42,35,95,73,48,30.35,30.25,15,1,15,0.00
2013-1-31,68,48,32,48,40,31,98,78,45,30.28,30.17,7,0,8,0.00
2013-2-1,71,47,33,50,41,32,99,82,37,30.24,30.10,10,1,12,0.00
2013-2-2,62,47,38,52,44,37,98,89,66,30.28,30.19,9,0,10,0.01
2013-2-3,57,45,36,48,42,35,99,90,70,30.26,30.13,7,0,8,0.01
2013-2-4,67,46,32,52,41,31,99,83,48,30.20,30.05,7,0,7,0.00
2013-2-5,56,46,37,47,42,35,98,88,69,30.17,30.07,9,1,14,0.01
2013-2-6,37,34,31,36,32,30,97,96,94,30.18,30.15,2,0,2,0.00
2013-2-9,55,46,31,42,36,29,97,72,49,30.14,30.03,9,1,11,0.01
2013-2-10,59,41,27,40,32,26,97,74,34,30.16,30.03,14,1,17,0.01
2013-2-11,62,44,29,42,30,23,98,67,24,30.27,30.09,15,2,17,0.00
2013-2-12,60,44,31,42,36,29,94,74,44,30.36,30.26,10,1,10,0.00
2013-2-13,64,46,30,46,37,29,98,76,36,30.36,30.22,10,1,10,0.00
2013-2-14,72,50,33,44,38,31,98,69,35,30.24,30.11,12,2,14,0.00
2013-2-15,77,53,34,48,38,32,98,67,22,30.23,30.16,8,1,10,0.00
2013-2-16,74,52,36,48,39,32,95,68,22,30.21,30.01,11,0,11,0.00
2013-2-17,60,46,33,48,41,32,98,85,65,30.04,29.93,9,1,9,0.00
2013-2-18,51,44,35,45,40,33,99,87,67,29.98,29.91,7,0,10,0.01
2013-2-19,46,41,36,44,39,33,97,91,78,29.92,29.68,17,1,19,0.28
2013-2-20,59,45,30,40,36,29,98,74,41,30.00,29.75,14,2,14,0.00
2013-2-21,58,46,34,39,36,31,96,71,37,30.10,29.98,18,2,21,0.00
2013-2-22,65,46,29,45,36,28,96,73,37,30.18,30.10,9,1,12,0.00
2013-2-23,59,47,35,43,38,32,96,74,38,30.18,30.06,16,2,16,0.00
2013-2-24,61,48,34,32,27,22,91,48,24,30.19,30.08,21,3,22,0.00
2013-2-25,63,46,30,45,36,28,94,73,45,30.21,30.09,11,1,13,0.00
2013-2-26,66,49,31,35,28,20,97,54,18,30.14,30.04,15,2,19,0.00
2013-2-27,70,49,30,40,34,28,93,62,23,30.29,30.13,8,1,9,0.00
2013-2-28,70,53,37,52,44,36,95,76,50,30.36,30.28,10,1,12,0.00
2013-3-1,77,56,39,54,46,37,98,74,42,30.35,30.13,9,1,12,0.00
2013-3-2,71,51,44,52,45,42,96,84,42,30.16,30.07,5,0,6,0.00
2013-3-3,57,49,44,50,46,42,94,88,77,30.03,29.96,2,0,6,0.00
2013-3-4,60,49,45,49,44,-100,94,83,67,30.07,29.98,8,-9,12,0.00
2013-3-5,51,47,44,44,42,39,97,84,71,30.01,29.87,13,3,23,0.46
2013-3-6,55,48,38,47,43,37,97,85,63,30.01,29.86,13,2,22,0.47
2013-3-7,56,45,36,45,40,35,99,85,51,29.94,29.79,9,1,13,0.24
2013-3-8,59,48,41,46,42,40,98,81,59,30.02,29.76,12,2,21,0.04
2013-3-9,65,52,39,44,40,36,91,68,35,30.23,30.02,15,2,20,0.00
2013-3-10,66,49,33,48,40,32,97,75,42,30.27,30.17,7,1,10,0.00
2013-3-11,72,51,34,45,40,33,96,70,31,30.19,30.02,6,1,9,0.00
2013-3-12,76,55,37,52,44,36,97,72,37,30.06,29.96,6,1,9,0.00
2013-3-13,82,59,41,54,46,40,97,70,26,30.07,29.97,7,1,10,0.00
2013-3-14,76,58,42,57,47,38,97,71,40,30.07,30.00,5,1,12,0.00
2013-3-15,75,57,39,52,45,37,91,67,40,30.04,29.95,6,1,13,0.00
2013-3-16,74,56,40,55,44,35,98,71,25,30.02,29.94,8,1,20,0.00
2013-3-17,68,54,38,49,42,37,94,67,34,30.05,29.95,9,1,10,0.00
2013-3-19,72,61,51,51,47,40,96,65,36,30.06,29.99,9,2,14,0.09
2013-3-20,63,55,50,55,51,43,98,87,59,30.05,30.00,5,1,11,0.02
2013-3-21,65,52,41,50,42,38,90,72,41,30.04,29.91,12,2,15,0.00
2013-3-22,67,54,37,39,29,18,96,46,16,30.00,29.93,14,4,24,0.00
2013-3-23,70,52,35,39,33,17,89,57,13,30.04,29.95,12,1,12,0.00
2013-3-24,70,52,35,47,40,33,94,68,32,30.01,29.88,7,1,11,0.00
2013-3-25,65,52,39,49,43,38,96,74,46,29.94,29.86,6,1,10,0.00
2013-3-26,66,53,42,50,45,40,93,77,53,29.93,29.84,7,1,11,0.00
2013-3-27,64,54,44,54,50,43,98,86,68,29.96,29.88,8,1,12,0.00
2013-3-28,66,56,48,56,52,47,99,88,64,30.01,29.94,6,1,10,0.12
2013-3-29,72,56,43,57,50,42,99,81,52,30.00,29.95,8,1,12,0.00
2013-3-30,65,55,49,54,51,49,98,88,58,30.02,29.94,9,1,14,0.29
2013-3-31,62,55,50,55,52,49,99,89,65,30.00,29.93,13,3,17,0.08
2013-4-1,64,55,47,53,50,46,98,86,61,30.08,29.98,9,1,11,0.32
2013-4-2,70,54,42,55,48,41,99,82,54,30.11,29.99,7,1,11,0.00
2013-4-3,74,56,43,55,49,43,99,81,40,30.05,29.91,9,1,12,0.01
2013-4-4,59,53,48,56,52,47,98,96,86,30.05,29.95,7,1,10,0.30
2013-4-5,68,57,49,55,51,47,97,82,52,30.10,30.02,5,1,10,0.00
2013-4-6,68,56,44,56,50,43,98,83,59,30.13,30.04,5,1,10,0.00
2013-4-7,67,55,45,57,50,43,98,82,43,30.10,29.82,8,1,12,0.05
2013-4-8,65,52,42,50,40,32,96,66,30,29.94,29.75,18,5,29,0.01
2013-4-9,72,61,43,42,35,32,90,43,23,29.99,29.92,12,4,27,0.00
2013-4-10,86,71,54,50,44,34,71,40,25,30.06,29.93,10,3,19,0.00
2013-4-11,73,59,46,51,46,39,90,66,32,29.98,29.76,8,1,14,0.00
2013-4-12,71,54,39,53,46,38,97,77,47,29.84,29.75,6,1,10,0.00
2013-4-13,69,53,42,52,44,39,97,74,37,29.85,29.76,12,2,17,0.00
2013-4-14,72,53,38,47,42,36,97,70,32,29.85,29.79,12,2,18,0.00
2013-4-15,57,49,43,47,40,34,95,71,49,29.89,29.81,19,4,22,0.01
2013-4-16,66,50,34,39,34,29,94,60,27,30.06,29.89,13,3,30,0.00
2013-4-17,67,56,40,38,31,26,83,43,22,30.16,30.07,13,4,23,0.00
2013-4-18,75,56,35,41,35,28,92,54,18,30.19,30.09,10,2,16,0.00
2013-4-19,78,60,40,51,44,37,92,59,28,30.16,29.99,10,1,12,0.00
2013-4-20,82,63,45,49,44,37,92,56,20,30.01,29.87,10,2,16,0.00
2013-4-21,87,65,43,52,42,35,94,53,17,29.94,29.83,12,1,13,0.00
2013-4-22,74,58,46,54,48,42,93,72,43,29.88,29.79,7,1,11,0.00
2013-4-23,66,52,43,53,48,42,98,86,64,29.89,29.79,8,1,11,0.00
2013-4-24,60,51,46,51,48,45,98,89,72,29.90,29.77,9,1,11,0.00
2013-4-25,67,55,42,51,48,41,97,78,54,30.05,29.91,8,1,11,0.00
2013-4-26,73,55,40,55,48,39,98,79,54,30.14,30.05,7,1,9,0.01
2013-4-27,76,57,42,56,48,41,98,75,37,30.14,30.00,8,1,10,0.00
2013-4-28,78,58,41,56,49,39,96,74,44,30.00,29.81,6,1,10,0.00
2013-4-29,89,68,48,58,50,43,96,60,21,29.82,29.66,8,1,16,0.00
2013-4-30,82,64,46,54,46,36,94,60,20,29.76,29.68,9,1,15,0.00
2013-5-1,71,56,45,54,48,41,96,75,53,30.01,29.77,6,1,11,0.00
2013-5-2,88,66,45,53,47,38,92,59,18,30.05,29.99,6,1,10,0.00
2013-5-3,89,67,45,52,44,32,86,52,14,30.01,29.72,8,1,11,0.00
2013-5-4,73,56,46,52,47,42,88,74,34,29.72,29.58,8,2,17,0.00
2013-5-5,62,56,52,52,50,47,88,78,61,29.73,29.57,10,3,21,0.00
2013-5-6,64,57,52,53,51,49,91,80,62,29.90,29.74,9,2,14,0.00
2013-5-7,70,59,49,52,50,45,91,72,46,29.98,29.89,9,1,13,0.00
2013-5-8,70,57,45,54,48,43,97,75,44,30.06,29.97,8,1,11,0.00
2013-5-9,70,56,45,55,50,43,94,79,59,30.10,29.99,5,1,11,0.00
2013-5-10,76,59,46,57,52,44,95,78,52,30.11,30.01,7,1,11,0.00
2013-5-11,83,64,47,60,52,46,96,70,38,30.07,29.95,8,1,11,0.00
2013-5-12,86,67,47,60,53,46,95,66,35,30.04,29.91,6,1,9,0.00
2013-5-13,82,64,46,58,51,44,91,67,38,30.00,29.86,15,1,19,0.00
2013-5-14,69,58,50,55,51,44,94,77,60,29.97,29.88,7,2,11,0.00
2013-5-15,73,57,42,51,45,40,94,67,30,30.00,29.95,12,2,19,0.00
2013-5-16,74,60,50,56,50,46,92,73,45,29.98,29.88,8,2,15,0.01
2013-5-17,74,58,44,50,44,33,95,65,23,30.02,29.92,15,2,16,0.00
2013-5-18,77,58,42,52,47,40,95,69,33,30.06,30.00,12,2,15,0.00
2013-5-19,83,64,43,50,44,37,94,54,20,30.04,29.87,17,2,19,0.00
2013-5-20,90,68,44,48,39,31,89,45,13,29.91,29.82,13,2,15,0.00
2013-5-21,73,57,47,52,43,33,92,62,24,29.92,29.84,12,3,27,0.00
2013-5-22,68,53,39,42,36,24,90,58,22,29.92,29.85,13,3,23,0.00
2013-5-23,67,54,43,44,41,38,83,63,41,29.94,29.87,13,3,20,0.00
2013-5-24,72,54,37,47,40,35,93,65,26,29.95,29.88,9,2,14,0.00
2013-5-25,72,55,42,49,43,38,93,68,31,30.00,29.93,9,2,17,0.00
2013-5-26,73,59,49,55,50,47,93,73,43,30.06,29.98,14,2,19,0.00
2013-5-27,66,58,47,57,52,45,93,80,69,30.06,29.94,7,1,11,0.00
2013-5-28,76,63,52,59,54,48,95,76,47,29.94,29.81,7,2,14,0.00
2013-5-29,75,60,49,57,50,45,91,72,46,29.89,29.81,10,2,14,0.00
2013-5-30,78,59,41,51,45,38,94,63,23,29.92,29.85,10,1,13,0.00
2013-5-31,89,68,43,53,44,33,93,51,14,29.93,29.80,11,2,16,0.00
2013-6-1,90,68,48,58,51,45,89,59,21,29.85,29.67,7,1,15,0.00
2013-6-2,70,58,49,56,52,46,95,79,61,29.71,29.64,11,1,12,0.00
2013-6-3,63,55,50,53,50,48,96,85,66,29.81,29.69,11,2,13,0.00
2013-6-4,66,55,46,55,51,44,96,85,68,29.91,29.80,8,1,12,0.00
2013-6-5,68,56,46,55,51,44,97,83,61,29.93,29.86,9,1,11,0.00
2013-6-6,70,58,50,56,52,49,97,83,61,29.90,29.81,7,1,11,0.00
2013-6-7,81,62,49,62,54,48,97,78,50,29.84,29.68,7,1,10,0.00
2013-6-8,70,58,48,58,53,47,97,83,65,29.80,29.68,7,2,12,0.00
2013-6-9,61,57,54,56,54,52,97,91,82,29.83,29.77,6,1,11,0.01
2013-6-10,66,59,55,54,52,50,86,78,65,29.89,29.80,8,2,15,0.00
2013-6-11,75,62,52,59,54,49,93,76,53,29.89,29.81,5,1,10,0.00
2013-6-12,80,61,46,57,48,37,95,67,22,29.94,29.84,8,1,22,0.00
2013-6-13,83,61,42,53,45,34,93,62,21,30.01,29.91,8,1,13,0.00
2013-6-14,88,66,44,54,47,42,94,57,22,29.92,29.73,8,1,13,0.00
2013-6-15,66,56,46,54,50,44,97,83,64,29.94,29.76,8,1,11,0.00
2013-6-16,85,63,48,57,50,46,97,68,29,30.00,29.94,11,2,16,0.00
2013-6-17,81,63,46,59,51,44,91,68,41,30.01,29.93,11,2,15,0.00
2013-6-18,72,60,50,52,48,43,94,69,37,29.96,29.91,12,2,22,0.00
2013-6-19,76,62,49,53,47,40,87,61,29,29.97,29.91,11,2,18,0.00
2013-6-20,81,61,43,52,45,33,92,61,20,29.93,29.85,11,2,19,0.00
2013-6-21,83,62,44,54,46,30,92,61,16,29.90,29.83,8,1,20,0.00
2013-6-22,85,65,45,55,49,35,93,62,20,29.86,29.77,7,2,16,0.00
2013-6-23,66,60,53,60,56,51,94,86,75,29.81,29.75,5,1,8,0.00
2013-6-24,61,59,58,59,58,57,98,96,92,29.86,29.73,5,1,8,0.02
2013-6-25,69,61,56,65,60,56,99,96,87,29.94,29.85,3,0,5,0.04
2013-6-26,87,72,60,67,63,60,99,77,46,29.95,29.86,8,1,11,0.00
2013-6-27,94,75,55,66,60,54,95,64,31,29.96,29.88,6,1,11,0.00
2013-6-28,99,78,56,62,56,48,86,51,20,29.92,29.79,7,1,13,0.00
2013-6-29,98,77,56,62,55,46,80,51,17,29.82,29.70,6,1,15,0.00
2013-6-30,96,73,55,61,56,46,89,60,18,29.76,29.66,8,1,12,0.00
2013-7-1,86,71,56,61,57,53,89,65,37,29.79,29.71,7,1,13,0.00
2013-7-2,83,71,59,61,58,55,87,66,44,29.84,29.75,10,1,13,0.00
2013-7-3,85,70,56,63,58,54,92,70,47,29.84,29.69,7,1,10,0.00
2013-7-4,79,68,58,62,58,55,91,74,55,29.71,29.64,7,1,11,0.00
2013-7-5,72,62,53,58,55,51,97,79,59,29.74,29.67,7,2,11,0.00
2013-7-6,67,56,53,56,52,51,95,87,66,29.76,29.70,7,1,13,0.00
2013-7-7,70,58,52,56,53,50,95,84,61,29.80,29.73,6,1,10,0.00
2013-7-8,77,60,51,57,52,47,96,78,37,29.90,29.81,7,1,9,0.00
2013-7-9,88,66,48,59,53,46,95,69,36,29.93,29.84,5,1,9,0.00
2013-7-10,76,62,53,58,55,52,97,80,54,29.92,29.82,10,2,11,0.00
2013-7-11,70,58,52,56,53,51,97,85,62,29.88,29.82,9,1,12,0.00
2013-7-12,74,60,51,57,53,50,96,80,51,29.88,29.81,9,1,11,0.00
2013-7-13,77,60,47,58,52,45,98,79,50,29.91,29.83,11,1,12,0.00
2013-7-14,76,60,48,58,53,48,98,82,50,29.93,29.82,6,1,11,0.00
2013-7-15,69,58,52,57,53,51,97,86,64,29.86,29.77,8,1,10,0.00
2013-7-16,70,60,53,57,54,51,94,82,61,29.95,29.82,8,1,10,0.00
2013-7-17,78,62,47,59,53,46,97,77,50,30.01,29.93,7,1,10,0.01
2013-7-18,78,62,47,60,54,45,98,78,50,29.98,29.86,8,1,10,0.00
2013-7-19,75,60,50,59,54,49,98,82,57,29.89,29.76,7,1,10,0.00
2013-7-20,69,57,52,58,54,50,98,87,66,29.80,29.71,7,1,12,0.00
2013-7-21,78,63,51,60,55,50,97,78,52,29.82,29.71,9,1,11,0.00
2013-7-22,74,65,57,61,58,55,93,79,57,29.87,29.81,9,1,10,0.00
2013-7-23,78,66,58,60,58,55,88,74,51,29.91,29.86,7,2,12,0.00
2013-7-24,78,65,54,60,56,52,95,76,54,29.90,29.82,6,1,10,0.00
2013-7-25,75,60,51,59,54,49,96,81,56,29.96,29.86,7,1,11,0.00
2013-7-26,73,60,52,60,55,51,97,84,61,30.03,29.94,8,1,11,0.00
2013-7-27,70,59,53,59,55,52,98,86,64,29.96,29.81,9,2,10,0.00
2013-7-28,67,58,53,58,54,52,98,88,71,29.83,29.77,9,1,12,0.00
2013-7-29,67,58,54,57,53,51,91,84,68,29.96,29.81,7,2,12,0.00
2013-7-30,71,60,54,57,53,51,92,80,60,30.03,29.96,9,2,11,0.00
2013-7-31,73,60,52,58,54,49,94,80,58,30.03,29.93,8,1,11,0.00
2013-8-1,79,63,44,57,51,43,96,67,33,30.00,29.87,8,1,11,0.00
2013-8-2,75,58,44,58,51,42,95,79,53,29.92,29.83,7,1,14,0.00
2013-8-3,68,57,52,57,53,51,97,88,66,29.93,29.86,9,1,11,0.00
2013-8-4,70,57,52,57,53,50,97,87,64,29.94,29.88,8,1,11,0.01
2013-8-5,75,60,49,59,53,49,98,81,54,29.96,29.86,7,1,11,0.00
2013-8-6,68,58,52,57,54,51,97,87,67,29.98,29.90,8,1,12,0.00
2013-8-7,72,61,53,57,55,51,95,80,59,30.03,29.94,8,1,10,0.00
2013-8-8,70,60,53,58,55,51,97,85,63,29.97,29.86,10,1,11,0.00
2013-8-9,73,61,54,59,55,51,92,80,62,29.92,29.84,7,1,11,0.00
2013-8-10,77,64,55,61,57,54,96,80,56,29.95,29.89,7,1,11,0.00
2013-8-11,77,62,52,61,56,51,98,81,54,29.94,29.84,7,1,11,0.00
2013-8-12,78,61,48,60,54,47,97,80,52,29.92,29.86,7,1,10,0.00
2013-8-13,83,64,46,59,53,45,98,72,40,29.91,29.82,7,1,11,0.00
2013-8-14,90,66,46,59,52,41,96,68,18,29.90,29.80,9,1,15,0.00
2013-8-15,90,70,52,64,58,50,97,70,35,29.86,29.79,6,1,11,0.00
2013-8-16,89,70,55,66,60,53,97,73,40,29.88,29.81,5,1,11,0.00
2013-8-17,86,66,54,60,56,53,93,74,39,29.91,29.79,11,1,19,0.00
2013-8-18,85,65,50,62,56,49,98,76,43,29.82,29.70,6,1,10,0.00
2013-8-19,82,64,53,60,56,52,95,77,46,29.84,29.74,8,1,14,0.00
2013-8-20,74,60,54,59,56,53,98,85,58,29.85,29.78,10,1,12,0.00
2013-8-21,74,61,54,57,54,52,95,80,53,29.87,29.78,7,1,10,0.00
2013-8-22,76,62,50,58,54,49,97,77,51,29.90,29.79,6,1,11,0.00
2013-8-23,79,62,49,60,55,48,98,78,51,29.85,29.72,6,1,10,0.00
2013-8-24,85,65,49,61,55,47,97,73,40,29.81,29.74,9,1,14,0.00
2013-8-25,80,66,54,63,58,53,97,78,49,29.87,29.80,9,2,12,0.00
2013-8-26,82,67,58,61,57,51,95,73,46,29.91,29.78,9,1,10,0.00
2013-8-27,84,66,49,58,53,46,93,67,38,29.82,29.70,6,1,13,0.00
2013-8-28,86,66,49,61,56,48,97,73,41,29.86,29.76,7,1,12,0.00
2013-8-29,87,70,54,65,60,54,98,74,45,29.94,29.86,6,1,11,0.00
2013-8-30,96,73,54,64,58,52,96,64,28,29.94,29.79,5,1,11,0.00
2013-8-31,87,70,54,60,54,48,89,62,28,29.87,29.77,8,1,10,0.00
2013-9-1,85,72,59,63,58,55,87,64,40,29.84,29.75,7,1,12,0.00
2013-9-2,82,71,64,64,60,57,85,71,51,29.86,29.76,8,1,11,0.00
2013-9-3,84,69,54,60,55,50,93,65,35,29.89,29.81,7,2,12,0.00
2013-9-4,84,67,53,59,56,52,94,69,41,29.94,29.83,15,2,15,0.00
2013-9-5,83,67,56,60,56,52,93,70,40,29.93,29.85,11,2,15,0.00
2013-9-6,92,70,46,57,52,44,95,60,27,29.91,29.71,7,1,10,0.00
2013-9-7,86,67,52,58,53,47,88,65,32,29.79,29.73,7,1,11,0.00
2013-9-8,79,63,49,60,55,47,96,77,51,29.80,29.69,6,1,9,0.00
2013-9-9,81,64,51,62,55,49,96,76,46,29.73,29.64,9,1,11,0.00
2013-9-10,61,58,54,58,56,52,98,94,88,29.84,29.69,5,1,7,0.00
2013-9-11,70,61,54,60,57,52,94,85,69,29.93,29.84,6,1,11,0.00
2013-9-12,78,64,54,63,58,53,95,81,57,29.90,29.79,5,1,10,0.00
2013-9-13,80,63,50,61,56,48,97,80,53,29.83,29.67,6,1,9,0.00
2013-9-14,79,63,47,60,54,46,96,75,50,29.74,29.63,6,1,9,0.01
2013-9-15,84,63,46,61,54,45,97,74,44,29.78,29.69,6,1,10,0.00
2013-9-16,84,64,49,61,55,48,96,73,40,29.80,29.69,10,1,18,0.00
2013-9-17,74,63,52,55,53,49,89,72,45,29.81,29.76,16,2,26,0.00
2013-9-18,84,63,45,54,48,39,96,63,21,29.82,29.71,10,1,14,0.00
2013-9-19,90,66,44,53,45,39,92,56,18,29.78,29.64,6,1,10,0.00
2013-9-20,76,60,45,61,53,41,93,76,51,29.80,29.70,10,1,13,0.00
2013-9-21,64,59,50,60,57,49,98,94,76,29.84,29.75,8,1,11,0.60
2013-9-22,74,59,45,58,52,44,99,80,48,29.92,29.84,7,1,12,0.01
2013-9-23,83,65,48,59,53,46,97,70,36,29.93,29.82,7,1,10,0.00
2013-9-24,77,63,52,58,53,48,94,71,41,29.91,29.83,9,2,18,0.00
2013-9-25,68,58,51,49,47,43,88,67,43,29.86,29.75,14,3,18,0.00
2013-9-26,74,56,40,47,40,34,96,62,24,29.91,29.75,8,1,14,0.00
2013-9-27,78,58,39,44,38,29,92,55,17,30.02,29.91,9,1,12,0.00
2013-9-28,82,61,41,45,41,37,88,55,21,30.01,29.89,6,0,9,0.00
2013-9-29,80,63,46,58,51,44,93,68,33,30.02,29.93,7,1,9,0.00
2013-9-30,79,64,50,61,56,48,97,78,53,30.00,29.86,5,1,12,0.00
2013-10-1,71,60,46,56,49,42,93,70,47,29.94,29.83,7,1,10,0.00
2013-10-2,76,57,43,54,46,41,96,70,36,29.93,29.84,13,1,16,0.00
2013-10-3,72,57,41,44,37,30,93,55,24,29.98,29.86,13,2,19,0.00
2013-10-4,79,66,50,38,32,28,59,29,19,30.00,29.86,10,3,20,0.00
2013-10-5,86,62,40,41,33,22,79,43,10,30.10,29.99,8,1,14,0.00
2013-10-6,85,61,41,42,33,21,77,44,10,30.03,29.92,7,1,11,0.00
2013-10-7,81,60,42,51,40,33,76,53,21,29.93,29.79,7,1,9,0.00
2013-10-8,66,52,41,52,46,37,97,80,54,29.83,29.67,8,1,11,0.00
2013-10-9,64,53,45,50,46,40,95,79,59,29.70,29.57,7,0,10,0.00
2013-10-10,59,49,40,51,45,37,96,87,73,29.95,29.70,9,1,11,0.00
2013-10-11,68,53,44,53,47,41,97,82,51,30.02,29.90,6,0,9,0.00
2013-10-12,68,52,39,51,45,37,98,77,50,29.95,29.84,5,0,9,0.00
2013-10-13,68,52,39,52,46,38,97,80,53,29.99,29.87,5,1,10,0.00
2013-10-14,80,58,38,48,40,36,94,60,25,30.02,29.89,5,0,9,0.00
2013-10-15,81,59,39,44,37,34,87,52,19,29.95,29.84,9,1,12,0.00
2013-10-16,81,58,40,44,36,30,84,51,17,30.00,29.92,9,1,14,0.00
2013-10-17,82,59,39,43,36,33,83,49,19,30.00,29.86,6,1,10,0.00
2013-10-18,82,58,38,42,36,33,82,51,18,29.97,29.88,7,1,9,0.00
2013-10-19,84,58,39,49,41,36,89,61,18,29.98,29.90,6,1,8,0.00
2013-10-20,76,54,39,51,43,36,94,70,38,29.95,29.83,4,1,8,0.00
2013-10-21,74,52,37,51,43,35,95,76,40,29.92,29.83,6,1,8,0.00
2013-10-22,72,50,37,52,44,35,97,81,46,29.94,29.86,6,1,9,0.00
2013-10-23,68,50,38,54,46,37,98,88,60,29.91,29.83,7,1,9,0.01
2013-10-24,58,49,42,52,47,41,98,93,80,30.04,29.90,4,0,8,0.00
2013-10-25,71,52,38,54,45,38,99,80,50,30.08,29.99,6,0,7,0.01
2013-10-26,78,55,38,54,45,37,98,75,40,30.07,29.93,6,0,9,0.00
2013-10-27,60,48,37,53,45,36,98,88,66,29.96,29.68,7,1,21,0.00
2013-10-28,61,53,50,50,47,45,94,80,55,29.80,29.63,7,1,16,0.01
2013-10-29,58,50,40,51,46,38,98,89,66,29.98,29.80,9,1,11,0.01
2013-10-30,66,49,34,49,42,33,98,78,47,30.07,29.98,7,1,10,0.01
2013-10-31,72,53,36,50,42,35,97,72,37,30.09,29.97,5,1,9,0.00
2013-11-1,77,54,37,48,40,35,97,66,23,30.06,29.94,4,0,11,0.00
2013-11-2,74,53,36,51,41,33,93,68,36,29.96,29.84,8,1,13,0.00
2013-11-3,63,53,41,45,34,25,94,52,25,29.94,29.83,12,2,18,0.00
2013-11-4,66,50,33,38,31,29,92,54,26,29.96,29.84,8,2,17,0.00
2013-11-5,72,58,42,38,32,29,72,41,23,30.15,29.97,10,2,22,0.00
2013-11-6,78,55,37,42,35,30,86,54,18,30.16,30.07,6,0,8,0.00
2013-11-7,75,54,40,41,36,31,79,57,22,30.09,29.98,4,0,7,0.00
2013-11-8,78,56,38,50,42,35,93,66,30,30.01,29.86,5,0,8,0.00
2013-11-9,69,52,39,50,44,37,97,79,34,29.99,29.90,7,1,10,0.00
2013-11-10,65,51,41,51,47,40,98,85,58,30.05,29.96,7,0,10,0.00
2013-11-11,71,54,40,51,45,40,98,75,33,30.08,29.99,2,0,5,0.00
2013-11-12,77,59,44,51,46,40,86,66,34,30.17,30.07,3,0,8,0.00
2013-11-13,79,57,41,50,43,37,94,67,23,30.17,30.01,7,1,16,0.00
2013-11-14,67,52,39,52,46,37,96,79,59,30.03,29.82,5,1,10,0.00
2013-11-15,64,51,38,49,43,35,96,75,40,29.82,29.65,5,1,11,0.00
2013-11-16,62,47,34,48,41,33,97,82,52,29.88,29.73,7,1,13,0.00
2013-11-17,61,48,37,50,44,36,98,87,65,30.03,29.88,7,0,10,0.00
2013-11-18,60,48,38,48,43,37,98,86,61,30.08,30.00,4,0,7,0.01
2013-11-19,60,51,42,53,48,40,96,89,74,30.05,29.90,4,0,6,0.07
2013-12-10,62,46,30,30,27,23,92,53,22,30.25,30.10,6,0,7,0.00
2013-12-11,66,42,27,33,28,24,91,65,20,30.13,30.06,6,0,8,0.00
2013-12-12,64,41,26,34,28,24,95,67,24,30.18,30.09,4,0,6,0.00
2013-12-13,63,41,26,43,31,24,96,71,32,30.26,30.15,10,0,13,0.00
2013-12-14,68,44,29,41,33,27,94,71,33,30.28,30.20,5,0,10,0.00
2013-12-15,73,46,28,40,33,27,96,67,24,30.27,30.12,3,0,6,0.00
2013-12-16,77,50,33,41,34,30,89,61,18,30.14,30.01,5,0,8,0.00
2013-12-17,78,52,35,44,36,28,87,61,18,30.07,29.94,1,0,5,0.00
2013-12-18,61,50,42,49,44,38,92,80,57,29.94,29.72,10,1,14,0.00
2013-12-19,56,47,32,44,36,28,94,68,41,29.85,29.65,14,2,19,0.00
2013-12-20,60,43,29,29,19,4,86,49,11,29.94,29.84,12,2,18,0.00
2013-12-21,67,45,31,44,34,24,91,68,42,30.01,29.88,7,1,13,0.00
2013-12-22,64,45,32,49,39,31,97,81,47,30.23,30.02,5,0,8,0.00
2013-12-23,69,46,32,46,37,31,98,74,33,30.29,30.22,6,0,9,0.00
2013-12-24,72,49,33,45,36,31,95,67,33,30.25,30.11,12,1,15,0.00
2013-12-25,76,48,31,42,34,29,93,66,23,30.18,30.09,5,0,7,0.00
2013-12-26,81,48,31,42,33,28,96,64,15,30.16,30.05,2,0,5,0.00
2013-12-27,72,47,30,42,33,27,90,65,21,30.14,30.03,1,0,6,0.00
2013-12-28,66,46,30,37,28,26,88,57,24,30.04,29.94,14,1,16,0.00
2013-12-29,72,49,34,32,27,22,75,49,17,30.10,29.99,4,0,8,0.00
2013-12-30,67,44,30,36,28,25,88,60,21,30.18,30.10,6,0,12,0.00
2013-12-31,68,44,28,38,30,24,83,62,26,30.18,30.05,3,0,6,0.00
2014-1-1,73,47,29,36,31,26,88,60,21,30.12,30.02,2,0,6,0.00
2014-1-2,74,50,33,40,34,29,88,60,26,30.08,29.96,5,0,6,0.00